DW8219 Weather Reports


Display with metric or nautical units.
time (UTC)temp
F
wind
direction
speed
MPH
gust
MPH
rain 1hr
in
rain 24hr
in
rain mn
in
humidity
%
barometer
mb
20260831005904 75 269 0.0 1.0 0.00 0.00 0.00 83 1017.1
20260831005404 75 271 0.0 1.0 0.00 0.00 0.00 83 1017.1
20260831004905 75 252 0.0 1.0 0.00 0.00 0.00 83 1017.1
20260831004404 75 246 2.0 9.0 0.00 0.00 0.00 82 1017.1
20260831003904 75 249 3.0 7.0 0.00 0.00 0.00 82 1017.0
20260831003405 75 240 0.0 1.0 0.00 0.00 0.00 83 1017.0
20260831002904 76 226 0.0 2.0 0.00 0.00 0.00 82 1017.0
20260831002405 76 249 1.0 3.0 0.00 0.00 0.00 80 1016.9
20260831001904 77 267 0.0 1.0 0.00 0.00 0.00 79 1016.8
20260831000904 77 254 0.0 0.0 0.00 0.00 0.00 78 1016.6
20260831000404 77 253 0.0 1.0 0.00 0.00 0.00 78 1016.6
20260830235904 77 252 0.0 1.0 0.00 0.00 0.00 77 1016.5
20260830235404 77 234 2.0 5.0 0.00 0.00 0.00 77 1016.6
20260830234904 77 257 0.0 5.0 0.00 0.00 0.00 77 1016.5
20260830234405 77 257 2.0 6.0 0.00 0.00 0.00 77 1016.4
20260830233405 77 240 3.0 7.0 0.00 0.00 0.00 77 1016.3
20260830232905 77 232 2.0 5.0 0.00 0.00 0.00 77 1016.3
20260830232404 77 263 3.0 8.0 0.00 0.00 0.00 77 1016.2
20260830231904 77 235 0.0 3.0 0.00 0.00 0.00 77 1016.2
20260830231405 77 258 2.0 6.0 0.00 0.00 0.00 77 1016.3
20260830230904 77 241 0.0 1.0 0.00 0.00 0.00 77 1016.3
20260830230405 77 241 2.0 8.0 0.00 0.00 0.00 76 1016.3
20260830225904 77 252 2.0 8.0 0.00 0.00 0.00 76 1016.4
20260830225404 77 243 0.0 10.0 0.00 0.00 0.00 76 1016.5
20260830224904 78 233 3.0 10.0 0.00 0.00 0.00 76 1016.3
20260830224405 78 219 5.0 8.0 0.00 0.00 0.00 75 1016.2
20260830223405 78 224 5.0 12.0 0.00 0.00 0.00 75 1016.3
20260830222904 78 244 2.0 7.0 0.00 0.00 0.00 75 1016.3
20260830222405 78 236 5.0 10.0 0.00 0.00 0.00 75 1016.2
20260830221905 78 218 7.0 12.0 0.00 0.00 0.00 75 1016.5
20260830220905 78 241 3.0 6.0 0.00 0.00 0.00 75 1016.4
20260830220406 78 221 2.0 9.0 0.00 0.00 0.00 74 1016.4
20260830215905 78 228 6.0 9.0 0.00 0.00 0.00 74 1016.6
20260830215405 78 225 3.0 8.0 0.00 0.00 0.00 74 1016.6
20260830214405 78 243 6.0 12.0 0.00 0.00 0.00 73 1016.3
20260830213905 78 227 8.0 13.0 0.00 0.00 0.00 73 1016.3
20260830213405 79 236 3.0 15.0 0.00 0.00 0.00 73 1016.2
20260830212904 79 242 6.0 15.0 0.00 0.00 0.00 72 1016.1
20260830212405 79 239 3.0 12.0 0.00 0.00 0.00 72 1016.2
20260830211904 80 246 1.0 9.0 0.00 0.00 0.00 71 1016.2
20260830211404 80 269 5.0 12.0 0.00 0.00 0.00 70 1016.3
20260830210903 81 233 9.0 13.0 0.00 0.00 0.00 69 1016.3
20260830210403 80 251 5.0 9.0 0.00 0.00 0.00 72 1016.3
20260830205904 80 243 4.0 13.0 0.00 0.00 0.00 72 1016.3
20260830205403 80 243 4.0 9.0 0.00 0.00 0.00 72 1016.5
20260830204903 79 243 6.0 12.0 0.00 0.00 0.00 73 1016.5
20260830203903 79 236 7.0 15.0 0.00 0.00 0.00 73 1016.7
20260830203403 79 227 4.0 10.0 0.00 0.00 0.00 72 1016.7
20260830202403 79 225 6.0 12.0 0.00 0.00 0.00 72 1016.8
20260830201904 79 234 5.0 9.0 0.00 0.00 0.00 72 1016.9
20260830201405 79 238 9.0 13.0 0.00 0.00 0.00 71 1016.9
20260830200904 79 250 9.0 17.0 0.00 0.00 0.00 73 1017.0
20260830200404 78 240 6.0 12.0 0.00 0.00 0.00 74 1017.0
20260830195904 78 246 7.0 12.0 0.00 0.00 0.00 74 1017.0
20260830194904 78 213 6.0 13.0 0.00 0.00 0.00 74 1017.1
20260830194404 78 240 9.0 14.0 0.00 0.00 0.00 73 1017.2
20260830193904 78 243 9.0 16.0 0.00 0.00 0.00 73 1017.1
20260830192904 78 209 6.0 14.0 0.00 0.00 0.00 73 1017.2
20260830192404 78 191 6.0 12.0 0.00 0.00 0.00 73 1017.2
20260830191905 78 228 8.0 14.0 0.00 0.00 0.00 74 1017.4
20260830191404 78 210 6.0 16.0 0.00 0.00 0.00 74 1017.5
20260830190904 78 239 8.0 10.0 0.00 0.00 0.00 74 1017.5
20260830190404 77 247 7.0 12.0 0.00 0.00 0.00 75 1017.9
20260830185905 77 227 6.0 10.0 0.00 0.00 0.00 74 1017.9
20260830185404 77 230 6.0 12.0 0.00 0.00 0.00 74 1018.0
20260830184904 77 237 8.0 13.0 0.00 0.00 0.00 74 1018.0
20260830184404 77 248 5.0 12.0 0.00 0.00 0.00 73 1018.1
20260830183904 77 204 5.0 12.0 0.00 0.00 0.00 74 1018.1
20260830183404 77 232 3.0 9.0 0.00 0.00 0.00 74 1018.2
20260830182904 77 229 2.0 7.0 0.00 0.00 0.00 73 1018.2
20260830182404 76 255 2.0 9.0 0.00 0.00 0.00 73 1018.3
20260830181906 76 235 2.0 12.0 0.00 0.00 0.00 73 1018.3
20260830180904 77 242 6.0 12.0 0.00 0.00 0.00 72 1018.5
20260830180405 77 203 4.0 12.0 0.00 0.00 0.00 73 1018.5
20260830175905 76 221 6.0 12.0 0.00 0.00 0.00 73 1018.6
20260830175404 76 249 10.0 20.0 0.00 0.00 0.00 72 1018.7
20260830174904 76 183 9.0 20.0 0.00 0.00 0.00 71 1018.7
20260830174405 77 197 7.0 13.0 0.00 0.00 0.00 71 1018.7
20260830173404 77 196 6.0 13.0 0.00 0.00 0.00 71 1018.7
20260830172405 77 206 9.0 16.0 0.00 0.00 0.00 69 1018.7
20260830171905 78 213 8.0 14.0 0.00 0.00 0.00 67 1018.7
20260830170904 78 209 5.0 12.0 0.00 0.00 0.00 68 1018.7
20260830170404 79 245 5.0 14.0 0.00 0.00 0.00 68 1019.0
20260830165904 77 168 7.0 18.0 0.00 0.00 0.00 68 1019.0
20260830165405 77 187 1.0 10.0 0.00 0.00 0.00 69 1018.9
20260830164904 76 211 3.0 9.0 0.00 0.00 0.00 68 1018.9
20260830164405 76 201 4.0 10.0 0.00 0.00 0.00 68 1018.9
20260830163905 76 217 6.0 12.0 0.00 0.00 0.00 68 1018.9
20260830163404 75 238 6.0 12.0 0.00 0.00 0.00 68 1019.1
20260830162904 75 222 4.0 15.0 0.00 0.00 0.00 69 1019.1
20260830161904 76 208 3.0 10.0 0.00 0.00 0.00 64 1019.2
20260830161405 76 230 7.0 12.0 0.00 0.00 0.00 63 1019.3
20260830160905 76 215 5.0 12.0 0.00 0.00 0.00 62 1019.4
20260830160406 77 239 8.0 13.0 0.00 0.00 0.00 60 1019.4
20260830155905 78 231 9.0 15.0 0.00 0.00 0.00 60 1019.5
20260830155405 78 196 2.0 12.0 0.00 0.00 0.00 63 1019.5
20260830154906 77 240 4.0 9.0 0.00 0.00 0.00 63 1019.5
20260830154404 76 230 6.0 12.0 0.00 0.00 0.00 63 1019.6
20260830153905 76 231 3.0 8.0 0.00 0.00 0.00 63 1019.6
20260830153405 75 198 6.0 12.0 0.00 0.00 0.00 64 1019.7
20260830152905 75 205 7.0 15.0 0.00 0.00 0.00 64 1019.8
20260830152405 75 195 7.0 12.0 0.00 0.00 0.00 63 1019.8
20260830151903 75 237 6.0 12.0 0.00 0.00 0.00 64 1019.9
20260830151404 74 223 3.0 8.0 0.00 0.00 0.00 63 1020.0
20260830150405 75 247 3.0 10.0 0.00 0.00 0.00 63 1020.1
20260830145904 75 243 5.0 12.0 0.00 0.00 0.00 63 1020.2
20260830145404 75 202 5.0 10.0 0.00 0.00 0.00 63 1020.2
20260830144904 74 214 3.0 7.0 0.00 0.00 0.00 64 1020.2
20260830144404 74 202 2.0 7.0 0.00 0.00 0.00 63 1020.2
20260830143904 74 214 5.0 9.0 0.00 0.00 0.00 63 1020.2
20260830143404 74 236 5.0 13.0 0.00 0.00 0.00 62 1020.3
20260830142904 74 233 7.0 14.0 0.00 0.00 0.00 62 1020.2
20260830142404 74 221 6.0 13.0 0.00 0.00 0.00 61 1020.2
20260830141904 74 228 6.0 12.0 0.00 0.00 0.00 62 1020.3
20260830141404 74 221 5.0 12.0 0.00 0.00 0.00 60 1020.3
20260830140404 73 171 5.0 13.0 0.00 0.00 0.00 60 1020.3
20260830135904 73 205 5.0 12.0 0.00 0.00 0.00 61 1020.4
20260830134905 72 194 3.0 10.0 0.00 0.00 0.00 59 1020.5
20260830134404 72 219 3.0 10.0 0.00 0.00 0.00 60 1020.6
20260830133904 71 216 2.0 9.0 0.00 0.00 0.00 62 1020.6
20260830133406 71 203 2.0 3.0 0.00 0.00 0.00 63 1020.7
20260830132904 71 208 3.0 9.0 0.00 0.00 0.00 63 1020.8
20260830132404 71 166 1.0 5.0 0.00 0.00 0.00 64 1020.8
20260830131904 70 200 1.0 3.0 0.00 0.00 0.00 67 1020.9
20260830130905 70 185 2.0 3.0 0.00 0.00 0.00 65 1021.0
20260830130405 69 216 2.0 8.0 0.00 0.00 0.00 68 1021.0
20260830125904 69 236 2.0 7.0 0.00 0.00 0.00 69 1020.9
20260830125404 69 222 1.0 3.0 0.00 0.00 0.00 69 1020.9
20260830124904 69 179 1.0 3.0 0.00 0.00 0.00 69 1020.9
20260830124404 68 177 1.0 2.0 0.00 0.00 0.00 69 1020.9
20260830123904 68 184 0.0 0.0 0.00 0.00 0.00 71 1020.9
20260830122904 66 229 0.0 0.0 0.00 0.00 0.00 74 1021.1
20260830122405 66 229 0.0 0.0 0.00 0.00 0.00 76 1021.1
20260830121404 66 230 0.0 0.0 0.00 0.00 0.00 75 1021.1
20260830120904 66 230 0.0 0.0 0.00 0.00 0.00 75 1021.1
20260830120405 66 229 0.0 0.0 0.00 0.00 0.00 75 1021.0
20260830115904 65 229 0.0 0.0 0.00 0.00 0.00 76 1021.0
20260830115405 65 229 0.0 0.0 0.00 0.00 0.00 77 1021.1
20260830114904 65 229 0.0 0.0 0.00 0.00 0.00 76 1021.1
20260830114405 65 229 0.0 0.0 0.00 0.00 0.00 76 1021.1
20260830113904 65 229 0.0 0.0 0.00 0.00 0.00 76 1021.2
20260830112904 64 229 0.0 0.0 0.00 0.00 0.00 79 1021.1
20260830112404 64 229 0.0 0.0 0.00 0.00 0.00 79 1021.1
20260830111905 64 229 0.0 0.0 0.00 0.00 0.00 78 1021.0
20260830111405 64 229 0.0 0.0 0.00 0.00 0.00 79 1021.0
20260830110905 63 229 0.0 0.0 0.00 0.00 0.00 80 1021.0
20260830110404 63 229 0.0 0.0 0.00 0.00 0.00 80 1021.0
20260830105904 63 229 0.0 0.0 0.00 0.00 0.00 79 1021.0
20260830105404 63 229 0.0 0.0 0.00 0.00 0.00 80 1020.8
20260830104905 63 229 0.0 0.0 0.00 0.00 0.00 79 1020.8
20260830104405 63 229 0.0 0.0 0.00 0.00 0.00 79 1020.7
20260830103404 63 229 0.0 0.0 0.00 0.00 0.00 80 1020.8
20260830102905 63 229 0.0 0.0 0.00 0.00 0.00 80 1020.8
20260830102404 63 229 0.0 0.0 0.00 0.00 0.00 79 1020.9
20260830101405 63 229 0.0 0.0 0.00 0.00 0.00 80 1021.0
20260830100905 63 229 0.0 0.0 0.00 0.00 0.00 79 1021.0
20260830100405 63 229 0.0 0.0 0.00 0.00 0.00 79 1021.0
20260830095905 63 229 0.0 0.0 0.00 0.00 0.00 79 1021.0
20260830095406 63 229 0.0 0.0 0.00 0.00 0.00 80 1021.0
20260830094905 63 229 0.0 0.0 0.00 0.00 0.00 80 1020.9
20260830094404 63 229 0.0 0.0 0.00 0.00 0.00 80 1020.9
20260830093904 63 229 0.0 0.0 0.00 0.00 0.00 79 1020.9
20260830093405 63 229 0.0 0.0 0.00 0.00 0.00 78 1020.9
20260830092905 63 229 0.0 0.0 0.00 0.00 0.00 77 1021.0
20260830092405 63 229 0.0 0.0 0.00 0.00 0.00 77 1021.0
20260830091904 63 229 0.0 0.0 0.00 0.00 0.00 77 1021.0
20260830091404 63 229 0.0 0.0 0.00 0.00 0.00 76 1021.0
20260830090904 63 229 0.0 0.0 0.00 0.00 0.00 75 1021.1
20260830090404 63 229 0.0 0.0 0.00 0.00 0.00 75 1021.0
20260830085905 63 229 0.0 0.0 0.00 0.00 0.00 74 1021.0
20260830085403 64 229 0.0 0.0 0.00 0.00 0.00 74 1021.1
20260830084904 64 229 0.0 0.0 0.00 0.00 0.00 73 1021.0
20260830084405 64 229 0.0 0.0 0.00 0.00 0.00 73 1021.1
20260830083403 64 229 0.0 0.0 0.00 0.00 0.00 73 1021.0
20260830082905 64 229 0.0 0.0 0.00 0.00 0.00 73 1021.2
20260830082404 64 229 0.0 0.0 0.00 0.00 0.00 73 1021.3
20260830081904 64 231 0.0 0.0 0.00 0.00 0.00 73 1021.3
20260830080904 64 231 0.0 0.0 0.00 0.00 0.00 72 1021.2
20260830080404 64 232 0.0 0.0 0.00 0.00 0.00 72 1021.1
20260830075904 64 232 0.0 0.0 0.00 0.00 0.00 73 1021.2
20260830075404 64 232 0.0 0.0 0.00 0.00 0.00 73 1021.2
20260830074904 64 232 0.0 0.0 0.00 0.00 0.00 73 1021.3
20260830074405 64 230 0.0 0.0 0.00 0.00 0.00 73 1021.4
20260830073904 64 230 0.0 0.0 0.00 0.00 0.00 73 1021.4
20260830071905 64 229 0.0 0.0 0.00 0.00 0.00 73 1021.3
20260830071404 64 229 0.0 0.0 0.00 0.00 0.00 73 1021.3
20260830070904 64 229 0.0 0.0 0.00 0.00 0.00 73 1021.3
20260830070404 64 227 0.0 0.0 0.00 0.00 0.00 73 1021.2
20260830065904 64 227 0.0 0.0 0.00 0.00 0.00 73 1021.2
20260830064904 64 229 0.0 0.0 0.00 0.00 0.00 72 1021.2
20260830064405 64 229 0.0 0.0 0.00 0.00 0.00 72 1021.3
20260830063904 64 229 0.0 0.0 0.00 0.00 0.00 71 1021.3
20260830063404 64 222 0.0 0.0 0.00 0.00 0.00 71 1021.2
20260830062904 64 216 0.0 0.0 0.00 0.00 0.00 71 1021.3
20260830061905 64 216 0.0 0.0 0.00 0.00 0.00 70 1021.3
20260830061404 65 216 0.0 0.0 0.00 0.00 0.00 70 1021.4
20260830060904 65 215 0.0 0.0 0.00 0.00 0.00 70 1021.3
20260830055905 65 215 0.0 0.0 0.00 0.00 0.00 69 1021.3
20260830055404 65 216 0.0 0.0 0.00 0.00 0.00 69 1021.3
20260830054405 65 206 0.0 0.0 0.00 0.00 0.00 69 1021.2
20260830053904 65 200 0.0 0.0 0.00 0.00 0.00 69 1021.2
20260830053405 65 222 0.0 0.0 0.00 0.00 0.00 69 1021.1
20260830052906 65 221 0.0 0.0 0.00 0.00 0.00 69 1021.1
20260830052404 66 227 0.0 0.0 0.00 0.00 0.00 68 1021.1
20260830051904 66 234 0.0 0.0 0.00 0.00 0.00 68 1021.1
20260830051404 66 227 0.0 0.0 0.00 0.00 0.00 68 1021.1
20260830050904 66 229 0.0 0.0 0.00 0.00 0.00 67 1021.1
20260830050405 66 234 0.0 0.0 0.00 0.00 0.00 67 1021.1
20260830045904 66 222 0.0 0.0 0.00 0.00 0.00 67 1021.2
20260830045405 66 252 0.0 0.0 0.00 0.00 0.00 67 1021.1
20260830044905 65 254 0.0 0.0 0.00 0.00 0.00 67 1021.1
20260830044405 66 254 0.0 0.0 0.00 0.00 0.00 67 1021.2
20260830043905 66 248 0.0 0.0 0.00 0.00 0.00 66 1021.1
20260830043405 66 227 0.0 0.0 0.00 0.00 0.00 66 1021.0
20260830042405 66 227 0.0 0.0 0.00 0.00 0.00 66 1021.1
20260830041905 66 227 0.0 0.0 0.00 0.00 0.00 65 1021.1
20260830041405 66 227 0.0 0.0 0.00 0.00 0.00 65 1021.1
20260830040904 66 227 0.0 0.0 0.00 0.00 0.00 66 1021.0
20260830040404 66 227 0.0 0.0 0.00 0.00 0.00 66 1021.0
20260830035905 66 227 0.0 0.0 0.00 0.00 0.00 66 1021.0
20260830035405 66 227 0.0 0.0 0.00 0.00 0.00 66 1021.0
20260830034905 66 227 0.0 0.0 0.00 0.00 0.00 65 1021.0
20260830034405 67 227 0.0 0.0 0.00 0.00 0.00 65 1020.9
20260830033905 67 227 0.0 0.0 0.00 0.00 0.00 64 1021.1
20260830033405 67 227 0.0 0.0 0.00 0.00 0.00 64 1021.1
20260830032905 67 227 0.0 0.0 0.00 0.00 0.00 64 1021.0
20260830032405 67 227 0.0 0.0 0.00 0.00 0.00 63 1021.0
20260830031904 67 226 0.0 0.0 0.00 0.00 0.00 63 1020.9
20260830031404 67 227 0.0 0.0 0.00 0.00 0.00 64 1020.9
20260830030904 67 227 0.0 0.0 0.00 0.00 0.00 64 1020.9
20260830030404 67 227 0.0 0.0 0.00 0.00 0.00 64 1020.9
20260830025903 67 227 0.0 0.0 0.00 0.00 0.00 64 1020.9
20260830025403 67 225 0.0 0.0 0.00 0.00 0.00 63 1021.0
20260830024903 67 225 0.0 0.0 0.00 0.00 0.00 63 1020.9
20260830024404 68 225 0.0 0.0 0.00 0.00 0.00 63 1020.9
20260830023904 68 225 0.0 0.0 0.00 0.00 0.00 61 1021.0
20260830023404 68 225 0.0 0.0 0.00 0.00 0.00 62 1021.0
20260830022905 68 225 0.0 0.0 0.00 0.00 0.00 61 1021.0
20260830022404 68 225 0.0 0.0 0.00 0.00 0.00 61 1020.9
20260830021905 68 225 0.0 0.0 0.00 0.00 0.00 61 1020.8
20260830021403 68 225 0.0 0.0 0.00 0.00 0.00 61 1020.9
20260830020903 69 227 0.0 0.0 0.00 0.00 0.00 60 1020.9
20260830020404 69 222 0.0 0.0 0.00 0.00 0.00 60 1020.8
20260830015904 69 232 0.0 0.0 0.00 0.00 0.00 59 1020.9
20260830015404 69 232 0.0 0.0 0.00 0.00 0.00 59 1021.0
20260830014904 69 242 0.0 0.0 0.00 0.00 0.00 59 1021.1
20260830014404 69 238 0.0 0.0 0.00 0.00 0.00 59 1021.0
20260830013904 69 244 0.0 0.0 0.00 0.00 0.00 59 1020.8
20260830013404 69 246 0.0 0.0 0.00 0.00 0.00 59 1020.9
20260830012904 70 253 0.0 0.0 0.00 0.00 0.00 57 1020.9
20260830012404 70 260 0.0 0.0 0.00 0.00 0.00 57 1020.9
20260830011903 69 261 0.0 0.0 0.00 0.00 0.00 58 1020.8
20260830011404 69 261 0.0 0.0 0.00 0.00 0.00 58 1020.8
20260830010904 69 261 0.0 0.0 0.00 0.00 0.00 58 1020.6